Weather Roundup
Issued by NWS

Home | Current Version | Previous Version | Graphics & Text | Print | Product List | Glossary Off
Versions: 1 2 3 4 5 6 7 8 9 10 11 12 13 14 15 16 17 18 19 20 21 22 23 24 25 26 27 28 29 30 31 32 33 34 35 36 37 38 39 40 41 42 43 44 45 46 47 48 49 50

000
NZUS93 KARX 191959
HRRWXR

CURRENT HOURLY OBSERVATIONS ACROSS
MUCH OF THE UPPER MISSISSIPPI VALLEY
NATIONAL WEATHER SERVICE LA CROSSE WI
300 PM CDT SAT AUG 19 2017


...SOUTHEAST MINNESOTA...


CITY           SKY/WX    TMP DP  RH WIND       PRES   REMARKS
ROCHESTER      MOSUNNY   76  64  66 SW8       29.96F
ROCHESTER/MAYO FAIR      78  58  50 W5        29.95F
WINONA         SUNNY     79  59  50 W7        29.94F
AUSTIN         MOSUNNY   75  63  64 S3        29.95F
ALBERT LEA     SUNNY     81  63  54 SE3       29.94F
DODGE CENTER   MOSUNNY   77  61  57 SW7       29.96F
PRESTON        MOSUNNY   77  59  53 SW9       29.97F
OWATONNA       MOSUNNY   79  64  61 S6        29.94F
FARIBAULT      SUNNY     77  63  61 SW3       29.94F
$$

...ELSEWHERE IN MINNESOTA...


CITY           SKY/WX    TMP DP  RH WIND       PRES   REMARKS
MINNEAPOLIS    MOSUNNY   78  58  49 SW6       29.92F
INTNL FALLS    MOSUNNY   81  56  42 W8        29.81F
DULUTH         MOSUNNY   79  58  48 W14G20    29.88F
RED WING       SUNNY     81  55  41 W7        29.92F
REDWOOD FALLS  SUNNY     78  62  57 SE9       29.91F
MANKATO        SUNNY     76  64  66 S7        29.94S
WORTHINGTON    SUNNY     77  61  57 SE9       29.95F
FAIRMONT       MOSUNNY   76  65  68 VRB7      29.94F
$$

...SOUTHWEST WISCONSIN...


CITY           SKY/WX    TMP DP  RH WIND       PRES   REMARKS
LA CROSSE      SUNNY     83  58  42 VRB5      29.93F
PRAIRIE DU CHI SUNNY     80  54  40 S7        29.95F
BOSCOBEL       SUNNY     82  59  45 VRB6      29.95F
LONE ROCK      NOT AVBL
PLATTEVILLE    SUNNY     78  61  56 CALM      29.98F
FORT MC COY    SUNNY     77  57  50 SW6       29.97S
MAUSTON-NEW LI CLEAR     80  60  51 SW6       29.95S
VIROQUA        FAIR      76  60  57 SW5       29.98S
WIS DELLS      SUNNY     80  55  42 SW5       29.96S
$$

...ELSEWHERE IN WISCONSIN...


CITY           SKY/WX    TMP DP  RH WIND       PRES   REMARKS
MILWAUKEE      MOSUNNY   82  60  47 MISG      29.94F
MADISON        MOSUNNY   79  59  50 SW6       29.96S
GREEN BAY      SUNNY     81  64  56 SW8       29.90F
EAU CLAIRE     SUNNY     79  56  45 SW13      29.92F
BLACK RVR FLS  FAIR      81  56  43 SW8       29.95S
MEDFORD        MOSUNNY   73  59  61 W10       29.95S
WAUSAU         MOSUNNY   78  58  49 W13       29.92S
WIS RAPIDS     MOSUNNY   81  59  47 W9        29.95F
MARSHFIELD     MOSUNNY   79  57  46 W10       29.94F
RICE LAKE      MOSUNNY   77  60  56 SW9       29.95S
$$

...NORTHEAST IOWA...


CITY           SKY/WX    TMP DP  RH WIND       PRES   REMARKS
WATERLOO       PTSUNNY   79  60  52 VRB6      29.94F
DUBUQUE        SUNNY     79  60  52 CALM      29.98S
DECORAH        SUNNY     77  57  50 SW5       29.96F
MASON CITY     SUNNY     79  61  53 S5        29.96F
CHARLES CITY   SUNNY     77  61  57 S5        29.97F
OELWEIN        SUNNY     79  63  57 VRB5      29.97F
$$

...ELSEWHERE IN IOWA...


CITY           SKY/WX    TMP DP  RH WIND       PRES   REMARKS
DES MOINES     MOSUNNY   82  62  50 CALM      29.94F
IOWA CITY      SUNNY     82  61  48 CALM      29.97F
FORT DODGE     PTSUNNY   81  64  57 S7        29.95F
MARSHALLTOWN   MOSUNNY   79  64  60 SE7       29.95F
CEDAR RAPIDS   MOSUNNY   80  61  52 S6        29.96S
$$

...NORTHERN ILLINOIS...


CITY           SKY/WX    TMP DP  RH WIND       PRES   REMARKS
CHICAGO-OHARE  MOSUNNY   83  54  36 VRB3      29.94F
CHICAGO-MIDWAY MOSUNNY   82  56  40 E7        29.95F
MOLINE         SUNNY     82  61  48 S6        29.95F
ROCKFORD       MOSUNNY   81  59  47 W5        29.97F
PEORIA         SUNNY     86  58  38 CALM      29.95F
$$

NOTE: "FAIR" INDICATES FEW OR NO CLOUDS BELOW 12,000 FEET WITH NO
SIGNIFICANT WEATHER AND/OR OBSTRUCTIONS TO VISIBILITY. WIND
SPEEDS ARE IN MILES-PER-HOUR.




USA.gov is the U.S. government's official web portal to all federal, state and local government web resources and services.